Regional Weather Roundup
Issued by NWS

Home | Current Version | Previous Version | Graphics & Text | Print | Product List | Glossary On
Versions: 1 2 3 4 5 6 7 8 9 10 11 12 13 14 15 16 17 18 19 20 21 22 23 24 25 26 27 28 29 30 31 32 33 34 35 36 37 38 39 40 41 42 43 44 45 46 47 48 49 50
000
ASUS43 KLSX 020007
RWRMO

WEATHER SUMMARY FOR MISSOURI
NATIONAL WEATHER SERVICE SPRINGFIELD MO
700 PM CDT MON SEP 01 2014

NOTE: "FAIR" INDICATES FEW OR NO CLOUDS BELOW 12,000 FEET WITH NO
       SIGNIFICANT WEATHER AND/OR OBSTRUCTIONS TO VISIBILITY.
       CURRENT SKY AND/OR WEATHER CONDITIONS ARE NOT AVAILABLE FOR
       CHILLICOTHE AND FARMINGTON.

MOZ001>031-035>038-043-044-053-054-020100-
...NORTHERN AND WESTERN MISSOURI...

CITY           SKY/WX    TMP DP  RH WIND       PRES   REMARKS
KANSAS CTY INT MOCLDY    76  70  82 CALM      29.87F
6HR MIN TEMP:  76; 6HR MAX TEMP:  81;

KANSAS C DTWN  CLOUDY    79  68  69 NW3       29.85F
6HR MIN TEMP:  79; 6HR MAX TEMP:  82;

LEE`S SUMMIT   CLOUDY    76  69  79 CALM      29.87F
6HR MIN TEMP:  66; 6HR MAX TEMP:  79;

ST JOSEPH      PTCLDY    79  69  71 W5        29.86S
6HR MIN TEMP:  77; 6HR MAX TEMP:  82;

CHILLICOTHE      N/A     80  69  69 CALM      29.86F
6HR MIN TEMP:  77; 6HR MAX TEMP:  81;

KIRKSVILLE     MOCLDY    76  68  76 SW5       29.86F
6HR MIN TEMP:  75; 6HR MAX TEMP:  82;


$$
MOZ066>068-077>081-088>096-101>105-020100-
...SOUTHWEST MISSOURI...

CITY           SKY/WX    TMP DP  RH WIND       PRES   REMARKS
SPRINGFIELD    PTCLDY    83  70  64 S10       29.85F
6HR MIN TEMP:  79; 6HR MAX TEMP:  86;

JOPLIN         PTCLDY    85  71  63 S12       29.84F THUNDER HX  90
6HR MIN TEMP:  81; 6HR MAX TEMP:  89;


$$
MOZ032>034-039>042-045>050-055>058-069>072-020100-
...CENTRAL MISSOURI...

CITY           SKY/WX    TMP DP  RH WIND       PRES   REMARKS
COLUMBIA       TSTM      71  70  96 SE7       29.88F VSB 1/4
6HR MIN TEMP:  71; 6HR MAX TEMP:  84; 6HR PCP:  0.79;

JEFFERSON CITY LGT RAIN  76  69  79 N7        29.86S
6HR MIN TEMP:  76; 6HR MAX TEMP:  85; 6HR PCP: TRACE;

ROLLA          CLOUDY    77  69  76 SE7       29.89S
6HR MIN TEMP:  73; 6HR MAX TEMP:  82;

SEDALIA        LGT RAIN  72  70  93 CALM      29.88F FOG
6HR MIN TEMP:  72; 6HR MAX TEMP:  82;

WHITEMAN AFB   TSTM      72  71  96 NE5       29.87S
OSAGE BEACH    CLOUDY    79  70  73 CALM      29.88S

$$
MOZ051-052-059>065-020100-
...EAST CENTRAL MISSOURI...

CITY           SKY/WX    TMP DP  RH WIND       PRES   REMARKS
ST LOUIS INTL  CLOUDY    84  65  52 VRB3      29.89F
6HR MIN TEMP:  82; 6HR MAX TEMP:  87;

SPIRIT OF STL  LGT RAIN  78  72  81 CALM      29.87F
6HR MIN TEMP:  78; 6HR MAX TEMP:  85; 6HR PCP:  0.02;

ST CHARLES     CLOUDY    82  66  58 CALM      29.87F
6HR MIN TEMP:  80; 6HR MAX TEMP:  86;


$$
MOZ072>076-082>087-097>100-106>115-020100-
...SOUTH CENTRAL AND SOUTHEAST MISSOURI...

CITY           SKY/WX    TMP DP  RH WIND       PRES   REMARKS
CAPE GIRARDEAU MOCLDY    83  74  74 S6        29.91F
6HR MIN TEMP:  81; 6HR MAX TEMP:  86;

FARMINGTON     CLEAR     81  70  69 S3        29.94F
6HR MIN TEMP:  75; 6HR MAX TEMP:  82;

POPLAR BLUFF   CLEAR     83  70  64 S8        29.90F
6HR MIN TEMP:  81; 6HR MAX TEMP:  88;

WEST PLAINS    PTCLDY    83  68  60 S10       29.93F
6HR MIN TEMP:  71; 6HR MAX TEMP:  86;


$$



USA.gov is the U.S. government's official web portal to all federal, state and local government web resources and services.